TimeEST,TemperatureF,Dew PointF,Humidity,Sea Level PressureIn,VisibilityMPH,Wind Direction,Wind SpeedMPH,Gust SpeedMPH,PrecipitationIn,Events,Conditions,WindDirDegrees,DateUTC
12:53 AM,28.0,23.0,81,30.19,10.0,Calm,Calm,-,N/A,,Clear,0,2012-11-09 05:53:00
1:53 AM,28.0,24.1,85,30.20,10.0,Calm,Calm,-,N/A,,Clear,0,2012-11-09 06:53:00
2:53 AM,27.0,24.1,89,30.21,10.0,Calm,Calm,-,N/A,,Clear,0,2012-11-09 07:53:00
3:53 AM,26.1,23.0,88,30.22,10.0,Calm,Calm,-,N/A,,Clear,0,2012-11-09 08:53:00
4:53 AM,26.1,21.9,84,30.24,10.0,Calm,Calm,-,N/A,,Clear,0,2012-11-09 09:53:00
5:53 AM,26.1,23.0,88,30.26,10.0,Calm,Calm,-,N/A,,Clear,0,2012-11-09 10:53:00
6:53 AM,25.0,21.9,88,30.28,10.0,Calm,Calm,-,N/A,,Clear,0,2012-11-09 11:53:00
7:53 AM,27.0,23.0,85,30.30,9.0,Calm,Calm,-,N/A,,Clear,0,2012-11-09 12:53:00
8:53 AM,36.0,30.0,79,30.30,9.0,Calm,Calm,-,N/A,,Clear,0,2012-11-09 13:53:00
9:53 AM,41.0,30.0,65,30.30,10.0,SW,4.6,-,N/A,,Clear,220,2012-11-09 14:53:00
10:53 AM,46.9,33.1,59,30.30,10.0,West,4.6,-,N/A,,Clear,260,2012-11-09 15:53:00
11:53 AM,50.0,33.1,52,30.27,10.0,WSW,6.9,-,N/A,,Clear,250,2012-11-09 16:53:00
12:53 PM,53.1,33.1,47,30.24,10.0,Variable,6.9,-,N/A,,Clear,0,2012-11-09 17:53:00
1:53 PM,53.1,32.0,45,30.22,10.0,WSW,4.6,-,N/A,,Clear,240,2012-11-09 18:53:00
2:53 PM,54.0,33.1,45,30.19,10.0,SSW,5.8,-,N/A,,Clear,200,2012-11-09 19:53:00
3:53 PM,54.0,32.0,43,30.20,9.0,SSW,5.8,-,N/A,,Clear,210,2012-11-09 20:53:00
4:53 PM,51.1,30.9,46,30.21,10.0,SW,4.6,-,N/A,,Clear,230,2012-11-09 21:53:00
5:53 PM,50.0,30.0,46,30.22,10.0,Calm,Calm,-,N/A,,Clear,0,2012-11-09 22:53:00
6:53 PM,46.9,30.0,52,30.23,10.0,Calm,Calm,-,N/A,,Clear,0,2012-11-09 23:53:00
7:53 PM,43.0,30.9,62,30.23,10.0,Calm,Calm,-,N/A,,Clear,0,2012-11-10 00:53:00
8:53 PM,39.0,30.9,73,30.23,10.0,Calm,Calm,-,N/A,,Clear,0,2012-11-10 01:53:00
9:53 PM,37.9,30.9,76,30.23,10.0,Calm,Calm,-,N/A,,Clear,0,2012-11-10 02:53:00
10:53 PM,36.0,30.0,79,30.22,10.0,Calm,Calm,-,N/A,,Clear,0,2012-11-10 03:53:00
11:53 PM,35.1,30.0,82,30.22,10.0,Calm,Calm,-,N/A,,Clear,0,2012-11-10 04:53:00